Weather History for Cloquet, MN

Change the Weather History Date:

Tuesday, May 12, 2009

  Actual Average Record
Temperature  
Mean Temperature 53 °F -  
Max Temperature 64 °F 58 °F 69 °F (2012)
Min Temperature 42 °F 37 °F 28 °F (2008)
Degree Days  
Heating Degree Days 12    
Growing Degree Days 3 (Base 50)    
Moisture  
Dew Point 43 °F    
Average Humidity 66    
Maximum Humidity 81    
Minimum Humidity 52    
Precipitation  
Precipitation 0.00 in - - ()
Sea Level Pressure  
Sea Level Pressure 29.87 in    
Wind  
Wind Speed 6 mph (SSE)    
Max Wind Speed 23 mph    
Max Gust Speed 43 mph    
Visibility 10 miles    
Events Rain    
Averages and records for this station are not official NWS values.
T = Trace of Precipitation, MM = Missing Value Source: NWS Daily Summary

Daily Weather History Graph

Daily Weather History Graph

Search for Another Location

Airport:

Trip Planner

Search our weather history database for the weather conditions in past years. The results will help you decide how hot, cold, wet, or windy it might be!

Date:

Astronomy

May. 12, 2009 Rise Set
Actual Time 5:39 AM CDT 8:34 PM CDT
Civil Twilight 5:03 AM CDT 9:09 PM CDT
Nautical Twilight 4:18 AM CDT 9:55 PM CDT
Astronomical Twilight 3:24 AM CDT 10:49 PM CDT
Moon No Moon Rise 7:41 AM CDT (5/12)
Length of Visible Light 16h 06m
Length of Day
14h 55m
Waning Gibbous, 88% of the Moon is Illuminated
May 12
Waning Gibbous
May 17
Last Quarter
May 24
New
May 30
First Quarter
Jun 7
Full

Hourly Weather History & Observations

Time (CDT) Temp. Windchill Dew Point Humidity Pressure Visibility Wind Dir Wind Speed Gust Speed Precip Events Conditions
12:17 AM 48.2 °F - 39.2 °F 71% 30.04 in 10.0 mi Calm Calm - N/A   Mostly Cloudy
12:37 AM 48.2 °F - 39.2 °F 71% 30.04 in 10.0 mi Calm Calm - N/A   Mostly Cloudy
12:57 AM 46.4 °F - 39.2 °F 76% 30.04 in 10.0 mi Calm Calm - N/A   Overcast
1:17 AM 48.2 °F - 41.0 °F 76% 30.03 in 10.0 mi SE 3.5 mph - N/A   Mostly Cloudy
1:37 AM 46.4 °F - 39.2 °F 76% 30.03 in 10.0 mi Calm Calm - N/A   Mostly Cloudy
1:57 AM 46.4 °F - 39.2 °F 76% 30.02 in 10.0 mi Calm Calm - N/A   Scattered Clouds
2:17 AM 46.4 °F 45.2 °F 39.2 °F 76% 30.01 in 10.0 mi ESE 3.5 mph - N/A   Scattered Clouds
2:37 AM 46.4 °F 44.3 °F 39.2 °F 76% 30.01 in 10.0 mi ESE 4.6 mph - N/A   Scattered Clouds
2:57 AM 44.6 °F 40.7 °F 37.4 °F 76% 30.00 in 10.0 mi East 6.9 mph - N/A   Scattered Clouds
3:17 AM 44.6 °F 43.1 °F 37.4 °F 76% 30.00 in 10.0 mi ESE 3.5 mph - N/A   Mostly Cloudy
3:37 AM 44.6 °F 43.1 °F 39.2 °F 81% 29.99 in 10.0 mi SE 3.5 mph - N/A   Overcast
3:57 AM 44.6 °F 42.2 °F 37.4 °F 76% 29.99 in 10.0 mi ESE 4.6 mph - N/A   Overcast
4:17 AM 44.6 °F 42.2 °F 37.4 °F 76% 29.98 in 10.0 mi ESE 4.6 mph - N/A   Scattered Clouds
4:37 AM 42.8 °F 39.3 °F 37.4 °F 81% 29.98 in 10.0 mi ESE 5.8 mph - N/A   Clear
4:57 AM 42.8 °F 40.1 °F 37.4 °F 81% 29.98 in 10.0 mi ESE 4.6 mph - N/A   Clear
5:17 AM 42.8 °F 39.3 °F 37.4 °F 81% 29.98 in 10.0 mi ESE 5.8 mph - N/A   Clear
5:37 AM 42.8 °F 40.1 °F 37.4 °F 81% 29.98 in 10.0 mi ESE 4.6 mph - N/A   Clear
5:57 AM 42.8 °F 39.3 °F 37.4 °F 81% 29.98 in 10.0 mi ESE 5.8 mph - N/A   Clear
6:17 AM 42.8 °F 39.3 °F 35.6 °F 76% 29.98 in 10.0 mi ESE 5.8 mph - N/A   Clear
6:37 AM 42.8 °F 40.1 °F 35.6 °F 76% 29.98 in 10.0 mi ESE 4.6 mph - N/A   Clear
7:17 AM 44.6 °F 42.2 °F 37.4 °F 76% 29.97 in 10.0 mi ESE 4.6 mph - N/A   Clear
7:37 AM 44.6 °F 42.2 °F 37.4 °F 76% 29.97 in 10.0 mi ESE 4.6 mph - N/A   Clear
7:57 AM 46.4 °F 44.3 °F 39.2 °F 76% 29.97 in 10.0 mi ESE 4.6 mph - N/A   Clear
8:17 AM 48.2 °F - 39.2 °F 71% 29.96 in 10.0 mi SE 5.8 mph - N/A   Clear
8:37 AM 50.0 °F - 41.0 °F 71% 29.95 in 10.0 mi SE 4.6 mph - N/A   Clear
8:57 AM 53.6 °F - 42.8 °F 67% 29.94 in 10.0 mi SE 5.8 mph - N/A   Scattered Clouds
9:17 AM 57.2 °F - 44.6 °F 63% 29.93 in 10.0 mi South 6.9 mph - N/A   Scattered Clouds
9:37 AM 59.0 °F - 46.4 °F 63% 29.92 in 10.0 mi South 10.4 mph - N/A   Mostly Cloudy
9:57 AM 59.0 °F - 46.4 °F 63% 29.92 in 10.0 mi South 18.4 mph 25.3 mph N/A   Mostly Cloudy
10:17 AM 59.0 °F - 46.4 °F 63% 29.91 in 10.0 mi South 10.4 mph 23.0 mph N/A   Scattered Clouds
10:37 AM 59.0 °F - 46.4 °F 63% 29.90 in 10.0 mi South 11.5 mph 23.0 mph N/A Rain Light Rain
10:57 AM 59.0 °F - 46.4 °F 63% 29.90 in 10.0 mi South 15.0 mph 24.2 mph N/A   Mostly Cloudy
11:17 AM 59.0 °F - 46.4 °F 63% 29.89 in 10.0 mi South 12.7 mph 17.3 mph N/A   Mostly Cloudy
11:37 AM 60.8 °F - 48.2 °F 63% 29.89 in 10.0 mi South 10.4 mph 18.4 mph N/A   Mostly Cloudy
11:57 AM 62.6 °F - 48.2 °F 59% 29.88 in 10.0 mi South 16.1 mph 25.3 mph N/A   Scattered Clouds
12:17 PM 62.6 °F - 48.2 °F 59% 29.87 in 10.0 mi South 17.3 mph 24.2 mph N/A   Scattered Clouds
12:37 PM 62.6 °F - 48.2 °F 59% 29.86 in 10.0 mi South 19.6 mph 27.6 mph N/A   Scattered Clouds
12:57 PM 62.6 °F - 48.2 °F 59% 29.85 in 10.0 mi South 20.7 mph 32.2 mph N/A   Mostly Cloudy
1:17 PM 64.4 °F - 48.2 °F 56% 29.84 in 10.0 mi South 20.7 mph 33.4 mph N/A   Mostly Cloudy
1:37 PM 62.6 °F - 46.4 °F 55% 29.84 in 10.0 mi South 17.3 mph 34.5 mph N/A   Mostly Cloudy
1:57 PM 62.6 °F - 46.4 °F 55% 29.83 in 10.0 mi South 23.0 mph 42.6 mph N/A   Overcast
2:17 PM 62.6 °F - 46.4 °F 55% 29.83 in 10.0 mi South 18.4 mph 28.8 mph N/A   Overcast
2:37 PM 62.6 °F - 48.2 °F 59% 29.82 in 10.0 mi South 18.4 mph 27.6 mph N/A   Mostly Cloudy
2:57 PM 62.6 °F - 48.2 °F 59% 29.81 in 10.0 mi SSE 11.5 mph 25.3 mph N/A   Mostly Cloudy
3:17 PM 62.6 °F - 48.2 °F 59% 29.79 in 10.0 mi SSE 10.4 mph 18.4 mph N/A   Mostly Cloudy
3:37 PM 62.6 °F - 46.4 °F 55% 29.78 in 10.0 mi South 13.8 mph 20.7 mph N/A   Overcast
3:57 PM 64.4 °F - 46.4 °F 52% 29.77 in 10.0 mi SSE 9.2 mph 23.0 mph N/A   Overcast
4:17 PM 62.6 °F - 46.4 °F 55% 29.76 in 10.0 mi South 15.0 mph 25.3 mph N/A   Overcast
4:37 PM 64.4 °F - 46.4 °F 52% 29.74 in 10.0 mi SSE 12.7 mph 25.3 mph N/A   Overcast
4:57 PM 64.4 °F - 46.4 °F 52% 29.73 in 10.0 mi South 12.7 mph 20.7 mph N/A   Overcast
5:17 PM 64.4 °F - 46.4 °F 52% 29.73 in 10.0 mi SSE 13.8 mph 19.6 mph N/A   Overcast
5:37 PM 62.6 °F - 46.4 °F 55% 29.72 in 10.0 mi South 12.7 mph 17.3 mph N/A   Overcast
5:57 PM 64.4 °F - 46.4 °F 52% 29.72 in 10.0 mi SSE 11.5 mph 19.6 mph N/A   Overcast
6:17 PM 64.4 °F - 46.4 °F 52% 29.72 in 10.0 mi SSE 9.2 mph 18.4 mph N/A   Overcast
6:37 PM 64.4 °F - 46.4 °F 52% 29.71 in 10.0 mi SSE 9.2 mph 17.3 mph N/A   Overcast
6:57 PM 64.4 °F - 46.4 °F 52% 29.71 in 10.0 mi SSE 10.4 mph 19.6 mph N/A   Overcast
7:17 PM 62.6 °F - 46.4 °F 55% 29.71 in 10.0 mi SSE 8.1 mph - N/A   Overcast
7:37 PM 62.6 °F - 46.4 °F 55% 29.71 in 10.0 mi SSE 8.1 mph 18.4 mph N/A   Overcast
7:57 PM 62.6 °F - 46.4 °F 55% 29.70 in 10.0 mi SSE 9.2 mph 17.3 mph N/A   Overcast
8:17 PM 62.6 °F - 46.4 °F 55% 29.69 in 10.0 mi SSE 9.2 mph - N/A   Overcast
8:37 PM 55.4 °F - 44.6 °F 67% 29.68 in 10.0 mi East 8.1 mph - N/A   Overcast
8:57 PM 55.4 °F - 44.6 °F 67% 29.69 in 10.0 mi ESE 8.1 mph - N/A   Overcast
9:17 PM 53.6 °F - 44.6 °F 72% 29.69 in 10.0 mi ESE 8.1 mph - N/A   Overcast
9:37 PM 53.6 °F - 44.6 °F 72% 29.68 in 10.0 mi ESE 6.9 mph - N/A   Overcast
9:57 PM 53.6 °F - 44.6 °F 72% 29.68 in 10.0 mi ESE 8.1 mph - N/A   Overcast
10:17 PM 55.4 °F - 46.4 °F 72% 29.68 in 10.0 mi South 10.4 mph - N/A   Overcast
10:37 PM 59.0 °F - 53.6 °F 82% 29.67 in 10.0 mi SSE 17.3 mph 25.3 mph N/A   Overcast
10:57 PM 59.0 °F - 53.6 °F 82% 29.66 in 10.0 mi South 17.3 mph 26.5 mph N/A   Overcast
11:17 PM 59.0 °F - 53.6 °F 82% 29.65 in 10.0 mi South 20.7 mph 31.1 mph N/A   Overcast
11:37 PM 57.2 °F - 53.6 °F 88% 29.62 in 10.0 mi South 17.3 mph 27.6 mph N/A   Overcast
11:57 PM 57.2 °F - 53.6 °F 88% 29.65 in 10.0 mi South 17.3 mph 26.5 mph N/A   Overcast